This demonstration page uses our WeatherBlox Daily Observations layout. Learn more.

Left ArrowRight Arrow

Hourly Observations for April 23, 2022

Temp ( °F °C ) Dew Point ( °F °C ) Humidity (%) Winds ( mph kmh ) Pressure ( in mb ) Visibility ( mi km ) Precip ( " mm )
12:12 am 00:12 Cloudy with Haze 73 22.8 60 15.6 64 64 S 32 52 29.40 996 1 2 0.00 0.00
12:31 am 00:31 Mostly Cloudy with Haze 72 22.2 60 15.6 66 66 S 31 50 29.42 996 2 3 0.00 0.00
12:39 am 00:39 Hazy 72 22.2 60 15.6 66 66 S 30 48 29.42 996 3 5 0.00 0.00
12:53 am 00:53 Mostly Clear with Light Rain 70 21.1 61 16.1 73 73 S 25 41 29.44 997 9 14 0.00 0.00
1:53 am 01:53 Cloudy 71 21.7 59 15 66 66 S 26 43 29.41 996 10 16 0.00 0.00
2:53 am 02:53 Cloudy 70 21.1 58 14.4 66 66 S 26 43 29.38 995 10 16 0.00 0.00
3:53 am 03:53 Cloudy 70 21.1 58 14.4 66 66 S 23 37 29.38 995 9 14 0.00 0.00
4:12 am 04:12 Cloudy with Rain 63 17 57 14 83 83 SSW 21 33 29.45 997 2 3 0.00 0.00
4:15 am 04:15 Cloudy with Light Rain 63 17 55 13 77 77 SSW 25 41 29.46 998 3 5 0.00 0.00
4:53 am 04:53 Cloudy 62 16.7 54 12.2 75 75 S 8 13 29.41 996 9 14 0.15 3.81
5:16 am 05:16 Cloudy with Nearby Thunderstorms 60 15.6 55 12.8 84 84 S 8 13 29.44 997 4 6 0.03 0.76
5:36 am 05:36 Cloudy with Light Rain 60 15.6 55 12.8 84 84 SE 9 15 29.39 995 8 13 0.04 1.02
5:53 am 05:53 Partly Cloudy 60 15.6 55 12.8 84 84 SE 13 20 29.35 994 10 16 0.05 1.27
6:53 am 06:53 Mostly Sunny 60 15.6 55 12.8 84 84 SSE 24 39 29.31 993 10 16 0.00 0.00
7:53 am 07:53 Sunny 59 15 51 10.6 75 75 SSW 21 33 29.35 994 10 16 0.00 0.00
8:53 am 08:53 Sunny 59 15 49 9.4 69 69 SSW 22 35 29.37 995 10 16 0.00 0.00
9:53 am 09:53 Sunny 61 16.1 47 8.3 60 60 SSW 20 31 29.40 996 10 16 0.00 0.00
10:53 am 10:53 Sunny 64 17.8 42 5.6 45 45 SW 16 26 29.41 996 10 16 0.00 0.00
11:53 am 11:53 Sunny 67 19.4 40 4.4 37 37 SW 18 30 29.44 997 10 16 0.00 0.00
12:53 pm 12:53 Sunny 70 21.1 41 5 35 35 SW 13 20 29.45 997 10 16 0.00 0.00
1:53 pm 13:53 Cloudy 68 20 41 5 38 38 W 28 44 29.47 998 10 16 0.00 0.00
2:53 pm 14:53 Mostly Sunny 70 21.1 37 2.8 30 30 W 26 43 29.48 998 10 16 0.00 0.00
3:53 pm 15:53 Sunny 69 20.6 33 0.6 26 26 W 30 48 29.50 999 10 16 0.00 0.00
4:53 pm 16:53 Sunny 66 18.9 31 -0.6 27 27 W 29 46 29.55 1001 10 16 0.00 0.00
5:53 pm 17:53 Sunny 64 17.8 30 -1.1 28 28 W 35 56 29.58 1002 10 16 0.00 0.00
6:53 pm 18:53 Sunny 58 14.4 30 -1.1 35 35 W 32 52 29.63 1003 10 16 0.00 0.00
7:53 pm 19:53 Sunny 54 12.2 29 -1.7 38 38 W 31 50 29.66 1004 10 16 0.00 0.00
8:53 pm 20:53 Clear 51 10.6 28 -2.2 41 41 W 25 41 29.69 1005 10 16 0.00 0.00
9:53 pm 21:53 Clear 48 8.9 28 -2.2 46 46 WNW 30 48 29.72 1006 10 16 0.00 0.00
10:53 pm 22:53 Clear 46 7.8 28 -2.2 50 50 WNW 33 54 29.70 1006 10 16 0.00 0.00
11:53 pm 23:53 Clear 46 7.8 30 -1.1 54 54 WNW 31 50 29.72 1006 10 16 0.00 0.00

Powered by AerisWeather